Regional Weather Roundup
Issued by NWS

Home | Current Version | Previous Version | Text Only | Print | Product List | Glossary Off
Versions: 1 2 3 4 5 6 7 8 9 10 11 12 13 14 15 16 17 18 19 20 21 22 23 24 25 26 27 28 29 30 31 32 33 34 35 36 37 38 39 40 41 42 43 44 45 46 47 48 49 50

000
ASUS43 KMKX 171500
RWRWI

WISCONSIN REGIONAL WEATHER ROUNDUP
NATIONAL WEATHER SERVICE MILWAUKEE/SULLIVAN WI
1000 AM CDT THU AUG 17 2017

NOTE: "FAIR" INDICATES FEW OR NO CLOUDS BELOW 12,000 FEET WITH NO
SIGNIFICANT WEATHER AND/OR OBSTRUCTIONS TO VISIBILITY.

WIZ001-002-006>008-014>016-023>028-171600-
NORTHWEST WISCONSIN

CITY           SKY/WX    TMP DP  RH WIND       PRES   REMARKS
SUPERIOR ARPT  DRIZZLE   61  61 100 NE16G24   29.62R
ASHLAND        HVY RAIN  63  62  97 NE9       29.60S FOG
HAYWARD        HVY RAIN  65  63  93 N5        29.58S FOG
SIREN          HVY RAIN  66  65  97 N5        29.57S
CUMBERLAND     DRIZZLE   64  63  94 N5        29.57R
RICE LAKE      RAIN      66  65  97 NE3       29.57S
CHETEK         DRIZZLE   66  66 100 CALM      29.55S
LADYSMITH      CLOUDY    67  66  97 SE3       29.59S FOG
EAU CLAIRE     NOT AVBL
MENOMONIE      CLOUDY    67  67  99 E5        29.50S FOG
NEW RICHMOND   PTSUNNY   69  65  88 N7        29.56R
OSCEOLA        CLOUDY    70  70 100 N5        29.59R
$$

WIZ003>005-009-010-017-018-171600-
NORTH CENTRAL WISCONSIN

CITY           SKY/WX    TMP DP  RH WIND       PRES   REMARKS
MANITOWISH WTR RAIN      66  66 100 E3        29.60F
ARBOR VITAE    PTSUNNY   70  68  95 SE6       29.60F
WOODRUFF       PTSUNNY   70  68  95 SE6       29.60F
RHINELANDER    LGT RAIN  66  66 100 SW13G18   29.62F FOG
EAGLE RIVER    RAIN      67  67 100 SE5       29.62F
LAND O LAKES   CLOUDY    69  68  99 SE6       29.64F FOG
PHILLIPS       CLOUDY    66  66  99 S8        29.58F
TOMAHAWK         N/A     66  64  95 CALM      29.61S FOG
MEDFORD        CLOUDY    66  64  92 S12       29.60F
MERRILL        CLOUDY    70  64  83 SW8       29.62S
$$

WIZ029-030-035-036-043>047-171600-
CENTRAL WISCONSIN

CITY           SKY/WX    TMP DP  RH WIND       PRES   REMARKS
WAUSAU         CLOUDY    69  64  84 S13G22    29.61S
MOSINEE        CLOUDY    68  64  88 S12       29.64R
MARSHFIELD     LGT RAIN  67  63  87 S13       29.60F
STEVENS POINT  CLOUDY    69  64  83 SW15G24   29.64S
WAUPACA        CLOUDY    75  67  76 S10       29.64S
WAUTOMA        CLOUDY    71  65  81 SW17      29.66S
WISC RAPIDS    CLOUDY    70  64  81 S14G22    29.64F
CAMP DOUGLAS   NOT AVBL
$$

WIZ011>013-019>022-031-037>040-048>050-171600-
NORTHEAST WISCONSIN

CITY           SKY/WX    TMP DP  RH WIND       PRES   REMARKS
ANTIGO         CLOUDY    69  67  96 S12       29.64R
SHAWANO        CLOUDY    79  68  68 SW7G17    29.63S HX  82
OCONTO         CLOUDY    74  70  88 S10       29.65R
STURGEON BAY   CLOUDY    70  67  90 S13       29.68S
GREEN BAY      PTSUNNY   76  71  85 S13G25    29.65F
MANITOWOC      NOT AVBL
APPLETON       PTSUNNY   77  68  73 S16G25    29.65S
CLINTONVILLE   CLOUDY    73  64  73 S18G25    29.63F
OSHKOSH        MOSUNNY   76  68  76 S17G23    29.66F
$$

WIZ032>034-041-042-053>061-171600-
SOUTHWEST WISCONSIN

CITY           SKY/WX    TMP DP  RH WIND       PRES   REMARKS
LA CROSSE      LGT RAIN  71  65  81 SW18      29.59S
SPARTA         CLOUDY    70  64  79 S10G17    29.61F
VIROQUA        CLOUDY    69  65  88 SW14G20   29.65S
BOSCOBEL       CLOUDY    73  64  73 SW12G23   29.67F
PRAIRIE DU CHI PTSUNNY   72  62  72 SW10G24   29.68S
PLATTEVILLE    CLOUDY    68  68 100 SW12      29.72F
$$

WIZ056-057-062-063-064-067-068-171600-
SOUTH CENTRAL WISCONSIN

CITY           SKY/WX    TMP DP  RH WIND       PRES   REMARKS
REEDSBURG      CLOUDY    69  67  94 S15       29.67S
BARABOO/DELLS  CLOUDY    69  63  79 SW14G20   29.67F
LONE ROCK      CLOUDY    70  66  87 SW12      29.68S
MINERAL POINT  CLOUDY    70  68  94 SW12G18   29.72S
MADISON        PTSUNNY   73  65  75 SW10G17   29.69S
MIDDLETON      PTSUNNY   75  64  67 SW17G24   29.70S
WATERTOWN      CLOUDY    74  71  88 S13       29.70F
MONROE         PTSUNNY   73  64  73 SW21G28   29.72F
JANESVILLE     PTSUNNY   75  70  83 SW15G23   29.72F
$$

WIZ051-052-058>065-066-070>072-171600-
SOUTHEAST WISCONSIN

CITY           SKY/WX    TMP DP  RH WIND       PRES   REMARKS
MILWAUKEE      PTSUNNY   76  71  85 SW14      29.72F
WAUKESHA       CLOUDY    72  68  88 S8        29.74R
MILWAUKEE/TIMM CLOUDY    73  66  78 S9        29.73R
RACINE         CLOUDY    76  71  85 SW12      29.74S
KENOSHA        CLOUDY    76  70  82 SW12      29.73F
FOND DU LAC    MOSUNNY   77  66  68 SW17G24   29.67F
SHEBOYGAN      CLOUDY    76  73  91 S9        29.70S
WEST BEND      MOSUNNY   73  70  88 S13       29.71S
JUNEAU         CLOUDY    74  68  82 S16G23    29.70F
$$

LSZ147-162-171600-
LAKE SUPERIOR

STATION/POSITION TIME  TEMP    WIND        PRES    WAVE
                       AIR SEA DIR/SP/G            HT/PER
                 (UTC) (F)     (DEG/KT/KT) (MB)    (FT/S)
W MID LAKE BUOY  1350   61 60   50/ 19/ 23 1002.8F   4/ 5
DEVILS ISLAND    1400   60      50/ 23/ 28 1002.5F
SAXON HARBOR     1440   64      50/  8/ 11 1001.4F
$$

LMZ867-665-643>646-171600-
LAKE MICHIGAN

STATION/POSITION TIME  TEMP    WIND        PRES    WAVE
                       AIR SEA DIR/SP/G            HT/PER
                 (UTC) (F)     (DEG/KT/KT) (MB)    (FT/S)
S GREEN BAY BUOY 1400   72 71  170/ 14/ 16 1004.0
N MID LAKE BUOY  1350   68 67  150/ 17/ 21 1005.4F   4/ 5
NORTHPORT PIER   1440   70     160/ 10/ 16 1004.7S
KEWAUNEE LAKESHO 1430   70     150/ 12/ 13 1004.5S
SHEBOYGAN LAKESH 1400   71     180/ 20/ 22 1005.0S
PORT WASHINGTON  1440   77     240/ 10/ 15 1006.8S
ATWATER BUOY     1309   72 71  180/ 14/ 17 1006.6F
MILWAUKEE LAKESH 1430   74     220/ 12/ 17   N/A
S MID LAKE BUOY  1350   72 71  200/ 17/ 21 1007.3F   4/ 5
KENOSHA   LAKESH 1400   74     180/  8/ 15 1006.8
$$

TC  - TEMPERATURE IN CELSIUS
VSB - VISIBILITY IN STATUTE MILES
WCI - WIND CHILL INDEX
HX  - HEAT INDEX





USA.gov is the U.S. government's official web portal to all federal, state and local government web resources and services.